{"data":{"norad_id":38771,"epoch":"2026-05-25T04:07:06.962304Z","epoch_age_seconds":67112,"freshness":"FRESH","line1":"1 38771U 12049A   26145.17160836  .00000089  00000+0  60392-4 0  9992","line2":"2 38771  98.6518 197.1283 0003303  69.0453 291.1078 14.21425461709994","mean_motion":14.21425461,"eccentricity":0.0003303,"inclination_deg":98.6518,"raan_deg":197.1283,"arg_perigee_deg":69.0453,"mean_anomaly_deg":291.1078,"bstar":6.0392e-5,"rev_number":70999,"period_min":101.30675434693,"perigee_km":818.158304184,"apogee_km":822.9137475849,"semimajor_km":7198.6730258844,"source":"CELESTRAK","updated_at":"2026-05-25T13:38:12.997685Z"}}